Location: Bonn
(50.7330°N, 7.1000°E)
Time: 04:05:40
(UTC+02:00)

Daily predictions for brighter satellites

Satellite Brightness Start Highest point End
(mag) Time Altitude Azimuth Time Altitude Azimuth Time Altitude Azimuth
CENTAUR R/B 4.1 03:14:48 32° NE 03:14:48 32° NE 03:18:33 10° NE
ADEOS Rocket 4.5 03:11:36 10° NNE 03:15:56 40° N 03:15:56 40° N
ATLAS 3B R/B 4.1 03:22:31 32° N 03:22:31 32° N 03:26:50 10° NE
COSMOS 2455 4.0 04:04:46 38° NNE 04:04:46 38° NNE 04:08:24 10° NE
Lacrosse 5 3.9 04:09:26 24° E 04:09:26 24° E 04:11:45 10° ENE
CZ-4C R/B 3.2 04:16:56 49° N 04:18:31 59° NE 04:26:08 10° ESE
Resurs 1-4 Rocket 3.7 04:15:30 10° NNE 04:17:57 28° N 04:17:57 28° N
USA 215 3.2 04:24:25 10° ENE 04:30:38 77° NNE 04:30:38 77° NNE
CZ-2D R/B 3.6 04:30:10 10° N 04:32:42 28° N 04:32:42 28° N
ARIANE 5 R/B 4.1 04:31:24 10° N 04:33:40 27° N 04:33:40 27° N
Cosmos 1943 Rocket 3.9 04:37:38 20° SE 04:39:52 26° ESE 04:44:24 10° NE
Cosmos 2315 Rocket 4.0 04:42:03 83° NE 04:42:03 83° NE 04:48:17 10° N
Cosmos 2278 Rocket 3.8 04:51:53 23° NNW 04:51:53 23° NNW 04:55:15 10° NNE
Cosmos 44 Rocket 3.9 04:59:59 51° ESE 04:59:59 51° ESE 05:03:43 10° SE
ADEOS II 2.6 04:55:48 10° NNE 05:01:00 56° E 05:02:31 41° SSE
CENTAUR R/B 3.1 05:01:59 44° NW 05:02:37 45° NNW 05:09:43 10° NE
Cosmos 2369 Rocket 2.4 05:10:34 53° S 05:11:47 69° ESE 05:17:26 10° NNE
ATLAS 3B R/B 4.2 05:09:46 20° NW 05:13:02 27° N 05:18:41 10° ENE
PSLV R/B 4.4 05:12:25 10° NNE 05:16:34 47° E 05:17:55 34° SSE
CZ-4B R/B 3.7 05:14:07 10° NNE 05:17:25 42° E 05:17:25 42° E
Cosmos 1470 3.7 05:18:19 10° N 05:22:09 47° ENE 05:25:55 10° SSE
Cosmos 1833 4.0 05:21:45 21° NNW 05:25:34 87° WSW 05:31:10 10° SSE
Okean O Rocket 2.5 05:23:52 10° NNE 05:28:08 47° E 05:31:42 14° S
Cosmos 1610 Rocket 4.4 05:23:00 10° N 05:29:15 85° E 05:35:24 10° S
Cosmos 2219 4.3 05:24:49 10° NNW 05:30:18 44° NE 05:35:42 10° ESE
Cosmos 1340 Rocket 4.1 05:28:54 14° SSE 05:32:07 41° E 05:35:59 10° NNE
Cosmos 2327 Rocket 4.4 05:26:31 10° NNW 05:32:49 74° W 05:39:10 10° S
Cosmos 2184 Rocket 4.0 05:35:34 10° NNW 05:41:45 59° W 05:47:50 10° S
Meteor 2-19 Rocket 4.3 05:35:44 10° NNW 05:41:54 79° W 05:48:04 10° S
Cosmos 1898 Rocket 3.6 05:39:05 27° SSW 05:41:56 76° ESE 05:47:08 10° NNE
Cosmos 2297 Rocket 4.2 05:40:57 10° NNW 05:45:36 25° NE 05:50:14 10° E
Cosmos 1937 Rocket 3.9 05:42:46 13° S 05:47:29 63° ESE 05:52:45 10° NNE
COSMOS 2455 4.1 05:47:55 23° NW 05:49:22 25° NNW 05:54:14 10° NNE
Lacrosse 5 1.9 05:48:39 49° W 05:49:54 70° NNW 05:54:59 10° ENE
ATLAS CENTAUR R/B 3.9 05:49:26 10° N 05:49:58 10° N 05:50:31 10° NNE
Cosmos 2341 Rocket 4.2 05:45:40 10° N 05:52:06 74° E 05:58:29 10° SSE
Cosmos 1953 4.2 05:50:10 10° NNW 05:51:21 18° NNW 05:51:21 18° NNW
Cosmos 1758 Rocket 4.2 05:51:34 10° S 05:55:58 59° E 06:00:24 10° NNE
Cosmos 1707 3.6 05:52:30 10° S 05:56:19 51° E 06:00:09 10° NNE
Resurs 1-4 Rocket 3.9 05:56:49 10° NNW 05:59:02 15° NW 05:59:02 15° NW
Cosmos-2242 3.4 05:58:20 10° N 06:02:36 63° ENE 06:06:52 10° SSE
RUBIN 8/PSLV 4.4 06:01:46 10° NNE 06:06:07 85° WNW 06:10:24 10° SSW
CZ-4B R/B 3.2 06:00:56 10° NNE 06:06:23 84° ESE 06:11:53 10° SSW
CZ-4C R/B 3.1 06:02:11 19° WNW 06:07:12 49° WSW 06:14:41 10° SSE
Cosmos 2298 Rocket 4.0 06:02:08 11° SSW 06:07:13 87° ESE 06:12:36 10° NNE
Cosmos 1656 Rocket 4.3 06:05:14 10° S 06:10:47 58° ESE 06:16:22 10° NE
Cosmos 1733 3.5 06:07:47 10° NNW 06:11:31 44° W 06:15:12 10° SSW
COSMO-SKYMED 1 3.4 06:07:38 10° SE 06:11:51 52° ENE 06:16:05 10° N
USA 215 3.7 06:07:23 10° ENE 06:13:42 53° N 06:17:58 21° WNW
Cosmos 990 Rocket 3.9 06:08:33 10° SSW 06:13:44 90° SW 06:18:57 10° NNE
CZ-2D R/B 4.1 06:12:19 10° NNW 06:14:01 12° NW 06:14:01 12° NW
ARIANE 5 R/B 4.4 06:12:21 10° NNW 06:14:00 13° NW 06:14:00 13° NW
EO 1 Del DPAF 3.4 06:13:07 10° SSE 06:16:56 74° ENE 06:20:47 10° N
Cosmos 1048 Rocket 4.3 06:13:37 10° NNW 06:18:47 71° ENE 06:23:59 10° SSE
Cosmos 1242 Rocket 3.1 06:18:59 10° NNW 06:22:26 37° W 06:25:51 10° SSW
Cosmos 1943 Rocket 2.2 06:19:13 19° SW 06:23:13 61° NW 06:28:45 10° NNE
Cosmos 1295 Rocket 4.4 06:17:48 10° NNW 06:24:05 77° W 06:30:24 10° S
Cosmos 1378 3.0 06:20:25 10° S 06:24:12 84° W 06:28:00 10° N
Cosmos 1809 Rocket 4.4 06:19:39 10° NNW 06:25:46 78° W 06:31:52 10° S
Cosmos 44 4.2 06:28:06 24° WSW 06:28:31 24° WSW 06:32:19 10° S
Nadezhda 1 Rocket 4.2 06:23:22 10° SSW 06:29:34 50° WNW 06:35:45 10° N
Cosmos 2263 4.4 06:27:50 19° WSW 06:31:41 48° NW 06:37:09 10° NNE
USA 81 4.3 06:28:35 10° S 06:33:49 74° E 06:39:07 10° N
APEX 3.8 06:33:39 26° W 06:34:36 31° WSW 06:38:13 10° S
USA 229 DEB 3.8 06:28:54 10° SW 06:35:43 86° SE 06:42:45 10° NE
NOSS 3-1 (C) 4.4 06:30:13 10° SSW 06:35:46 49° ESE 06:42:04 10° NE
USA 229 3.8 06:29:00 10° SW 06:35:48 85° SE 06:42:50 10° NE
Cosmos 2278 Rocket 4.4 06:35:35 10° NNW 06:36:51 11° NNW 06:38:07 10° N
Cosmos 44 Rocket 4.5 06:38:47 20° W 06:39:57 22° WSW 06:43:38 10° SSW
Landsat 4 4.3 06:36:48 10° SSW 06:40:16 34° W 06:43:45 10° NNW
ADEOS II 3.0 06:36:03 10° N 06:40:25 27° WNW 06:43:27 16° WSW
SKYMED 3 4.5 06:37:30 10° SSE 06:41:51 83° WSW 06:46:14 10° NNW
Tiangong 2 3.3 06:41:05 13° SW 06:42:08 14° SSW 06:43:57 10° SSE
ERBS 2.3 06:40:44 20° WNW 06:43:00 74° SW 06:46:28 10° SE
Cosmos 1953 Rocket 3.7 06:42:34 10° SSW 06:46:46 48° WNW 06:50:58 10° N
Meteor 2-21 Rocket 4.4 06:43:23 10° NNW 06:49:24 68° W 06:55:25 10° S
Cosmos 1825 Rocket 4.2 06:45:31 10° SW 06:49:33 34° WNW 06:53:39 10° N
CZ-2C R/B 4.4 06:46:24 10° SSW 06:50:45 35° W 06:55:07 10° NNW
Cosmos 158 Rocket 4.1 06:46:33 10° NNW 06:51:50 58° WSW 06:57:06 10° S
Cosmos 2227 Rocket 2.6 06:46:16 10° NNW 06:51:57 66° ENE 06:57:36 10° SE
CZ-4B R/B 4.1 06:49:58 10° NNW 06:52:31 18° WNW 06:53:33 16° W
Cosmos 2366 rocket 3.9 06:46:51 10° N 06:53:01 84° W 06:59:11 10° S
Meteor 1-28 Rocket 3.8 06:50:53 10° SSW 06:54:25 36° W 06:57:59 10° NNW
CENTAUR R/B 4.0 06:49:10 10° WNW 06:55:08 31° N 07:01:53 10° ENE
SJ 16-02 2.2 06:51:15 10° S 06:55:33 55° ESE 06:59:52 10° NNE
Cosmos 2369 Rocket 3.2 06:52:24 14° W 06:56:19 29° NW 07:01:13 10° NNE
IRS-1C Rocket 4.4 06:52:27 10° N 06:57:28 45° WNW 07:02:28 10° SW
IDEFIX/ARIANE 42P 3.4 06:52:17 10° NNE 06:57:29 57° E 07:02:37 10° S
Cosmos 1470 4.2 06:55:17 10° NW 06:57:53 17° W 07:00:27 10° SW
Cosmos 1269 Rocket 4.0 06:54:21 10° NNW 06:59:37 67° WSW 07:04:52 10° S
CZ-2C R/B 3.6 06:55:08 10° NNE 06:59:51 47° E 07:04:40 10° S
SKYMED 2 3.6 06:55:38 10° S 06:59:53 56° W 07:04:12 10° NNW
Okean O Rocket 2.7 07:00:45 10° N 07:04:16 24° WNW 07:07:47 10° WSW
ATLAS 3B R/B 3.7 06:59:03 10° NW 07:05:32 41° NNE 07:11:43 10° E
Meteor 2-5 Rocket 3.9 07:01:06 10° SSW 07:06:57 61° WNW 07:12:44 10° N
SL-8 Rocket 4.2 07:01:56 10° NNW 07:08:01 52° W 07:14:07 10° SSW
Cosmos 1340 Rocket 4.1 07:05:35 10° WSW 07:08:47 22° WNW 07:12:02 10° NNW
Meteor 1-31 Rocket 3.6 07:05:42 10° N 07:09:02 29° WNW 07:12:22 10° SW
Thor Agena Rocket 3.7 07:04:19 10° SSE 07:09:36 89° ENE 07:14:53 10° NNW
Meteor 2-1 Rocket 4.3 07:07:58 10° NNW 07:13:54 70° W 07:19:45 10° S
Okean-O 2.6 07:09:31 10° N 07:13:56 62° WNW 07:18:18 10° SSW
Cosmos 2219 3.7 07:09:10 10° NW 07:14:26 39° WSW 07:19:37 10° S
NOAA 6 4.1 07:18:08 10° N 07:23:15 59° WNW 07:28:19 10° SSW
Cosmos 2218 Rocket 4.3 07:22:24 10° NNW 07:28:15 44° W 07:34:07 10° SSW
